[[{"header":{"parameterUnit":"m.s-1","parameterCategory":1,"la1":30.2991,"la2":30.254,"lo1":-89.0895,"lo2":-89.0444,"dy":0.0017,"dx":0.0017,"nx":28,"ny":28,"refTime":"2025-07-11T09:00:00:Z","depth":0,"parameterNumber":2,"parameterNumberName":"U-component_of_WINDS"},"data":[0,0,0,0,0,0,0,0,0,0,0,0,0,0,0,0,0,0,0,0,0,0,0,0,0,0,0,0,0,0,0,0,0,0,0,0,0,0,0,0,0,0,0,0,0,0,0,0,0,0,0,0,0,0,0,0,0,0,1.0779,1.0781,0,1.0938,1.094,1.0942,1.1011,1.1011,1.101,1.101,1.1173,1.1177,1.1182,0,0,0,0,0,0,0,0,0,0,0,0,0,1.0533,1.0537,1.0779,1.0781,1.0783,1.0938,1.094,1.0942,1.1011,1.1011,1.101,1.101,1.1171,1.1177,1.1182,0,0,0,0,0,0,0,0,0,0,0,0,0,1.0661,1.0539,1.0778,1.0836,1.0843,1.0937,1.094,1.0943,1.1011,1.1011,1.101,1.101,1.117,1.1176,1.1183,1.1233,0,0,1.1204,1.1207,0,0,0,0,0,0,0,0,1.0653,1.067,1.0825,1.0832,1.084,1.0954,1.0913,1.104,1.1011,1.0947,1.101,1.101,1.11,1.1113,1.1144,1.124,1.1247,1.1204,1.1209,1.1212,1.1214,0,0,0,0,0,0,0,1.0644,1.0663,1.0842,1.0828,1.0836,1.0853,1.0871,1.0937,1.1024,1.0952,1.0958,1.0976,1.1104,1.1137,1.1148,1.125,1.1204,1.121,1.1215,1.1217,1.1394,1.1395,0,0,0,0,0,0,1.0626,1.0655,1.0837,1.0847,1.0744,1.0858,1.0878,1.0918,1.1023,1.1039,1.0976,1.0978,1.1125,1.114,1.1154,1.1219,1.1212,1.1218,1.1222,1.1393,1.1394,1.1395,0,0,0,0,0,0,1.0621,1.0642,1.083,1.0753,1.0778,1.0862,1.0907,1.0921,1.0954,1.1041,1.1057,1.0993,1.1126,1.1144,1.1212,1.1225,1.1221,1.1227,1.1393,1.1394,1.1394,1.1348,0,0,0,0,0,0,1.0613,1.064,1.066,1.0752,1.0782,1.0886,1.0908,1.0924,1.0965,1.097,1.1062,1.1076,1.1127,1.1202,1.1219,1.1235,1.1233,1.1392,1.1393,1.1394,1.1349,1.1347,1.1346,0,0,0,0,0,1.0604,1.064,1.066,1.0682,1.0809,1.0887,1.0904,1.0961,1.0966,1.0987,1.1043,1.1073,1.1221,1.1208,1.1228,1.1246,1.1391,1.1393,1.1394,1.135,1.1348,1.1346,0,0,0,0,0,0,1.0547,1.0654,1.0677,1.0744,1.0806,1.0898,1.0926,1.0957,1.1019,1.1021,1.1089,1.1109,1.1171,1.1215,1.1199,1.1299,1.1309,1.1314,1.1268,1.1267,1.1265,1.1254,1.1238,0,0,0,0,0,1.0542,1.0597,1.0687,1.0737,1.0767,1.0841,1.0877,1.0916,1.0983,1.1009,1.107,1.1134,1.1195,1.1233,1.1294,1.1355,1.1376,1.1378,1.1376,1.1374,1.1378,1.1414,1.1415,1.1399,1.1399,1.1399,0,0,1.0532,1.0597,1.0628,1.0728,1.078,1.0835,1.0863,1.092,1.0961,1.1018,1.1086,1.1133,1.1208,1.1273,1.1305,1.1312,1.1387,1.1376,1.1374,1.1379,1.1415,1.1417,1.1418,1.14,1.14,1.14,0,0,1.0543,1.0598,1.0646,1.0698,1.0777,1.0825,1.0837,1.0925,1.0958,1.1027,1.107,1.112,1.1223,1.1275,1.1315,1.1344,1.1374,1.1361,1.1354,1.1388,1.1389,1.139,1.1401,1.1403,1.1365,1.1365,1.1365,0,1.0521,1.0606,1.0666,1.0721,1.0763,1.0817,1.0865,1.0913,1.1007,1.1035,1.1041,1.1171,1.1226,1.1303,1.131,1.1341,1.1355,1.1352,1.1384,1.1386,1.1388,1.1399,1.1402,1.1363,1.1363,1.1363,1.1364,0,1.0575,1.0633,1.0663,1.0752,1.0798,1.0849,1.0916,1.0955,1.0989,1.1037,1.1106,1.1173,1.1248,1.1269,1.1303,1.1351,1.1353,1.1371,1.1382,1.1387,1.1398,1.1402,1.136,1.1361,1.1361,1.1362,0,0,1.0556,1.0677,1.0687,1.0728,1.0818,1.0864,1.0917,1.099,1.1022,1.1085,1.1131,1.1216,1.1233,1.1278,1.1318,1.1348,1.1366,1.1362,1.1365,1.1361,1.1423,1.1409,1.1412,1.1386,1.1387,1.1388,1.1416,0,1.0579,1.0677,1.0732,1.0807,1.0861,1.0912,1.0958,1.1018,1.1064,1.1116,1.1166,1.1226,1.1243,1.1271,1.1302,1.1357,1.1379,1.1356,1.143,1.1432,1.141,1.1418,1.1404,1.1428,1.1421,1.1422,1.1422,0,1.0619,1.0681,1.0761,1.0845,1.087,1.091,1.0981,1.1031,1.1099,1.1131,1.118,1.122,1.1277,1.1283,1.1363,1.1346,1.1379,1.1411,1.1413,1.1423,1.1428,1.1428,1.1437,1.144,1.143,1.1429,1.1428,0,1.0596,1.07,1.0761,1.0795,1.0894,1.0921,1.0963,1.1032,1.1072,1.1134,1.116,1.1228,1.1265,1.1316,1.1373,1.1372,1.1447,1.1458,1.1474,1.1473,1.1489,1.1487,1.1503,1.1509,1.1509,1.1509,1.1509,0,1.0617,1.0664,1.0752,1.079,1.0844,1.0906,1.0958,1.1004,1.1064,1.1112,1.116,1.1203,1.1275,1.1327,1.1372,1.1431,1.1447,1.1474,1.1486,1.147,1.1467,1.1493,1.1493,1.151,1.151,1.151,1.151,0,1.0601,1.0662,1.0732,1.082,1.0843,1.0879,1.0954,1.0992,1.1039,1.1098,1.1116,1.1191,1.1254,1.1316,1.1401,1.1431,1.149,1.1505,1.1467,1.1474,1.1487,1.1485,1.1521,1.1528,1.1529,1.1529,1.1529,0,1.061,1.0647,1.0739,1.0774,1.0815,1.0871,1.0912,1.0974,1.1015,1.1096,1.1124,1.1191,1.1248,1.1348,1.1409,1.1475,1.1492,1.15,1.1502,1.1485,1.1492,1.1489,1.1493,1.1498,1.1498,1.1498,1.1498,0,1.0619,1.0647,1.0705,1.0773,1.082,1.0877,1.0935,1.096,1.1034,1.1077,1.1142,1.1186,1.1273,1.1339,1.1412,1.1455,1.1489,1.1496,1.1504,1.1489,1.1465,1.1478,1.1463,1.1495,1.1496,1.1496,1.1496,1.1496,1.0617,1.0652,1.0722,1.0784,1.0834,1.0887,1.0927,1.0979,1.1035,1.1111,1.1144,1.121,1.1277,1.1377,1.142,1.1473,1.1481,1.1491,1.1494,1.1496,1.1493,1.1456,1.1486,1.1486,1.1486,1.1486,1.1487,0,1.0629,1.0676,1.0732,1.0812,1.086,1.0887,1.0952,1.0991,1.1049,1.1109,1.1164,1.1238,1.1302,1.1369,1.1436,1.1465,1.1482,1.1481,1.148,1.1489,1.1482,1.1468,1.1466,1.1466,1.1466,1.1466,1.1466,1.1466,1.0641,1.0702,1.0738,1.0824,1.0871,1.0936,1.0971,1.102,1.1068,1.115,1.1203,1.1246,1.1308,1.138,1.144,1.1458,1.1481,1.1475,1.1497,1.1489,1.149,1.1491,1.1479,1.1479,1.1479,1.1501,1.1501,1.1501]},{"header":{"parameterUnit":"m.s-1","parameterCategory":1,"la1":30.2991,"la2":30.254,"lo1":-89.0895,"lo2":-89.0444,"dy":0.0017,"dx":0.0017,"nx":28,"ny":28,"refTime":"2025-07-11T09:00:00:Z","depth":0,"parameterNumber":3,"parameterNumberName":"V-component_of_WINDS"},"data":[0,0,0,0,0,0,0,0,0,0,0,0,0,0,0,0,0,0,0,0,0,0,0,0,0,0,0,0,0,0,0,0,0,0,0,0,0,0,0,0,0,0,0,0,0,0,0,0,0,0,0,0,0,0,0,0,0,0,4.5089,4.5088,0,4.5039,4.5039,4.5038,4.4964,4.4963,4.4962,4.496,4.4909,4.4909,4.4909,0,0,0,0,0,0,0,0,0,0,0,0,0,4.5119,4.5119,4.5089,4.5088,4.5088,4.5039,4.5039,4.5038,4.4964,4.4963,4.4961,4.496,4.4909,4.4909,4.4909,0,0,0,0,0,0,0,0,0,0,0,0,0,4.5092,4.5119,4.5089,4.5045,4.5041,4.5039,4.5039,4.5038,4.4965,4.4963,4.4961,4.4959,4.4909,4.4909,4.4909,4.4946,0,0,4.4908,4.4908,0,0,0,0,0,0,0,0,4.5093,4.5091,4.5052,4.5048,4.5043,4.5006,4.5031,4.5007,4.4965,4.4994,4.496,4.4958,4.4943,4.494,4.4935,4.4944,4.4942,4.4908,4.4908,4.4908,4.4908,0,0,0,0,0,0,0,4.5095,4.5092,4.5069,4.5052,4.5046,4.5028,4.5022,4.5026,4.498,4.4991,4.4986,4.4981,4.494,4.4935,4.4933,4.4941,4.4908,4.4908,4.4908,4.4908,4.4978,4.4979,0,0,0,0,0,0,4.5104,4.5094,4.5071,4.5068,4.5064,4.5029,4.5022,4.502,4.498,4.4972,4.4982,4.4977,4.4937,4.4933,4.4931,4.4971,4.4908,4.4908,4.4908,4.4976,4.4978,4.498,0,0,0,0,0,0,4.5105,4.5102,4.5073,4.508,4.5074,4.503,4.5029,4.502,4.5015,4.4973,4.4964,4.4986,4.4935,4.4931,4.4943,4.4969,4.4908,4.4907,4.4973,4.4976,4.4979,4.5053,0,0,0,0,0,0,4.5106,4.5103,4.5117,4.508,4.5074,4.5086,4.503,4.502,4.5015,4.5008,4.4974,4.4967,4.4933,4.4944,4.4943,4.4967,4.4907,4.4971,4.4975,4.4978,4.5048,4.5058,4.5067,0,0,0,0,0,4.5107,4.514,4.5118,4.5116,4.5091,4.5088,4.5084,4.5045,4.5017,4.5031,4.5004,4.4968,4.4966,4.4946,4.4944,4.4969,4.4969,4.4974,4.4978,4.5044,4.5056,4.5067,0,0,0,0,0,0,4.5181,4.5134,4.511,4.5132,4.5114,4.5075,4.5091,4.5059,4.5049,4.5043,4.4995,4.4988,4.5006,4.4988,4.4966,4.5002,4.4962,4.4966,4.5013,4.5024,4.5034,4.5037,4.4907,0,0,0,0,0,4.52,4.5201,4.516,4.5184,4.5176,4.5135,4.5133,4.5104,4.5084,4.5076,4.505,4.5032,4.5027,4.5025,4.5018,4.5046,4.5037,4.5062,4.5071,4.5079,4.5083,4.5096,4.5106,4.4995,4.4995,4.4995,0,0,4.5238,4.5213,4.5217,4.5198,4.5181,4.5183,4.513,4.5134,4.5135,4.5077,4.5086,4.5066,4.5043,4.5062,4.507,4.5048,4.5112,4.5085,4.5092,4.5091,4.5101,4.5112,4.5121,4.4998,4.4997,4.4997,0,0,4.531,4.5291,4.5308,4.5292,4.5268,4.524,4.5245,4.521,4.5195,4.5204,4.5159,4.516,4.5153,4.5138,4.5129,4.5195,4.5161,4.5194,4.5243,4.5256,4.5265,4.5272,4.5295,4.5303,4.5199,4.5199,4.5199,0,4.5361,4.5363,4.5321,4.5328,4.5321,4.5268,4.5285,4.5271,4.5246,4.5242,4.5219,4.5208,4.5189,4.5204,4.522,4.5215,4.5218,4.5198,4.5267,4.5274,4.528,4.5301,4.531,4.5203,4.5203,4.5202,4.5202,0,4.5426,4.5428,4.5445,4.5421,4.5416,4.5428,4.5388,4.5388,4.536,4.5335,4.5344,4.5319,4.5306,4.5307,4.528,4.5318,4.5306,4.5276,4.5234,4.5296,4.5314,4.5322,4.5209,4.5208,4.5206,4.5205,0,0,4.5542,4.5495,4.5502,4.5491,4.5459,4.546,4.547,4.5457,4.5457,4.5442,4.5448,4.5444,4.5415,4.5405,4.5376,4.5387,4.544,4.5355,4.5354,4.5371,4.548,4.5502,4.5512,4.5418,4.5419,4.542,4.5481,0,4.5606,4.562,4.5583,4.5606,4.5607,4.5557,4.5565,4.5547,4.5524,4.5521,4.5496,4.5493,4.5456,4.545,4.5459,4.5432,4.5461,4.5427,4.5423,4.5423,4.5429,4.5522,4.5546,4.5604,4.5488,4.549,4.5491,0,4.5683,4.5671,4.5695,4.5662,4.5661,4.5669,4.5654,4.5653,4.5631,4.5613,4.5603,4.5569,4.5575,4.5536,4.5544,4.5522,4.5518,4.5504,4.5506,4.5503,4.546,4.5521,4.5622,4.5631,4.5502,4.5501,4.55,0,4.5764,4.5754,4.5766,4.5758,4.5721,4.5727,4.5712,4.5688,4.5683,4.567,4.5666,4.5655,4.5648,4.564,4.5603,4.5578,4.5615,4.5573,4.56,4.5601,4.5609,4.5609,4.571,4.5609,4.5608,4.5608,4.5608,0,4.5839,4.5855,4.5802,4.581,4.5826,4.5783,4.58,4.578,4.5759,4.5762,4.5718,4.5721,4.5673,4.5671,4.5642,4.5653,4.565,4.5636,4.5628,4.5639,4.5641,4.5635,4.563,4.5611,4.561,4.561,4.5609,0,4.5932,4.5897,4.5907,4.5871,4.5862,4.5876,4.5844,4.5849,4.5824,4.5828,4.5826,4.5786,4.5781,4.5744,4.5731,4.5711,4.5732,4.5717,4.5739,4.5734,4.5763,4.576,4.5863,4.5874,4.5767,4.5768,4.5769,0,4.5982,4.5993,4.5958,4.5956,4.5943,4.5941,4.5936,4.5894,4.589,4.5866,4.5874,4.5866,4.5857,4.5851,4.582,4.581,4.5793,4.583,4.5791,4.5802,4.5792,4.5792,4.5792,4.5838,4.5839,4.584,4.5841,0,4.6073,4.6056,4.6049,4.6038,4.6032,4.6021,4.6006,4.6008,4.5962,4.596,4.5954,4.5947,4.5933,4.5925,4.5909,4.5893,4.5859,4.5854,4.5859,4.587,4.5883,4.5875,4.5761,4.5851,4.585,4.585,4.5849,4.5849,4.6145,4.6152,4.6129,4.6123,4.6109,4.6096,4.6099,4.6074,4.6069,4.6055,4.6031,4.6029,4.6006,4.5981,4.5968,4.5965,4.5945,4.5953,4.5955,4.5958,4.5963,4.5884,4.5962,4.5961,4.5961,4.5961,4.5961,0,4.6234,4.6216,4.6212,4.6193,4.6189,4.6159,4.6141,4.614,4.6138,4.612,4.6112,4.6106,4.6098,4.6067,4.6055,4.6059,4.6043,4.6057,4.6056,4.6052,4.5982,4.5978,4.607,4.607,4.607,4.607,4.607,4.607,4.6279,4.629,4.627,4.6272,4.6254,4.6252,4.6245,4.6233,4.6218,4.6213,4.6206,4.6186,4.6163,4.6149,4.614,4.6131,4.6128,4.6147,4.6133,4.6068,4.6057,4.6047,4.6043,4.6147,4.6148,4.6204,4.6204,4.6204]}]]